Location: Unspecified
(47.8330°N, 0.0000°E)
Time: 13:28:21
(UTC+00:00)

Gurwin Techsat 1B - Visible Passes

Search period start: 23 July 2019 00:00
Search period end: 02 August 2019 00:00
Orbit: 812 x 813 km, 98.7° (Epoch: 22 July)

Date Brightness Start Highest point End Pass type
(mag) Time Alt. Az. Time Alt. Az. Time Alt. Az.
23 Jul 11.0 00:17:30 10° ENE 00:18:29 10° E 00:19:29 10° E visible
23 Jul 8.7 01:54:01 10° NNE 01:59:22 73° ESE 02:02:26 26° S visible
23 Jul 10.3 03:34:58 10° NNW 03:38:45 20° WNW 03:42:32 10° WSW visible
24 Jul 9.3 01:31:17 10° NNE 01:36:26 47° E 01:39:15 25° SSE visible
24 Jul 9.8 03:11:38 10° N 03:16:09 29° WNW 03:20:27 11° WSW visible
25 Jul 9.9 01:08:44 10° NNE 01:13:26 31° E 01:16:03 20° SE visible
25 Jul 9.3 02:48:29 10° N 02:53:29 43° WNW 02:57:15 17° SW visible
26 Jul 10.5 00:46:28 10° NE 00:50:21 20° E 00:52:51 15° SE visible
26 Jul 8.7 02:25:27 10° N 02:30:44 64° WNW 02:34:04 23° SW visible
27 Jul 10.9 00:24:52 10° ENE 00:27:10 13° E 00:29:28 10° ESE visible
27 Jul 8.6 02:02:33 10° NNE 02:07:54 84° ESE 02:10:51 28° SSW visible
27 Jul 10.4 03:43:46 10° NNW 03:47:11 18° NW 03:50:36 10° W visible
28 Jul 9.0 01:39:46 10° NNE 01:45:01 55° E 01:47:40 28° SSE visible
28 Jul 10.0 03:20:20 10° N 03:24:37 25° WNW 03:28:52 10° WSW visible
29 Jul 9.7 01:17:08 10° NNE 01:22:02 36° E 01:24:28 24° SE visible
29 Jul 9.5 02:57:07 10° N 03:01:58 37° WNW 03:05:40 16° SW visible
30 Jul 10.3 00:54:45 10° NE 00:58:59 23° E 01:01:16 18° SE visible
30 Jul 8.9 02:34:03 10° N 02:39:16 55° WNW 02:42:28 23° SW visible
31 Jul 10.7 00:32:48 10° NE 00:35:51 15° E 00:38:04 12° ESE visible
31 Jul 8.6 02:11:06 10° NNE 02:16:28 83° WNW 02:19:15 29° SSW visible
31 Jul 10.6 03:52:37 10° NNW 03:55:36 15° NW 03:58:35 10° W visible
01 Aug 8.8 01:48:17 10° NNE 01:53:35 65° ESE 01:56:04 32° S visible
01 Aug 10.2 03:29:03 10° N 03:33:04 22° WNW 03:37:04 10° WSW visible
